Location: Borz?cin
(51.1714°N, 19.6030°E)
Time: 07:53:31
(UTC+00:00)

NOSS 2-1 (C) - Pass Details

Date: 19 May 2025
Orbit: 378 x 1699 km, 63.3° (Epoch: 16 June)

Event Time Altitude Azimuth Distance (km) Brightness Sun altitude
Exits shadow 22:55:51 14° 267° (W) 1,247 5.1 -18.7°
Maximum altitude 22:58:02 29° 324° (NW) 745 4.5 -18.7°
Drops below altitude 10° 23:00:43 10° 29° (NNE) 1,404 6.4 -18.7°
Sets 23:02:52 0° 41° (NE) 2,282 7.4 -18.6°
